Greensboro, NC

8:34 AM EST on November 23, 2017 (GMT -0500)
Piedmont Triad International

Weather History for KGSO - August, 2012

Change the Weather History Date:

Monday, August 20, 2012

  Actual Average Record
Temperature  
Mean Temperature 72 °F 77 °F  
Max Temperature 78 °F 86 °F 101 °F (1914)
Min Temperature 65 °F 68 °F 52 °F (1943)
Degree Days  
Heating Degree Days 0 0  
Month to date heating degree days 0 0  
Since 1 June heating degree days 4 6  
Since 1 July heating degree days 0 0  
Cooling Degree Days 7 12  
Month to date cooling degree days 247 255  
Year to date cooling degree days 1302 1140  
Since 1 June cooling degree days 1040 981  
Growing Degree Days 21 (Base 50)    
Moisture  
Dew Point 64 °F    
Average Humidity 80    
Maximum Humidity 100    
Minimum Humidity 60    
Precipitation  
Precipitation 0.24 in 0.13 in 1.64 in (1961)
Month to date precipitation 5.60 2.45  
Year to date precipitation 25.76 27.36  
Sea Level Pressure  
Sea Level Pressure 29.92 in    
Wind  
Wind Speed 3 mph (North)    
Max Wind Speed 15 mph    
Max Gust Speed 18 mph    
Visibility 8 miles    
Events Rain , Thunderstorm    
T = Trace of Precipitation, MM = Missing Value Source: NWS Daily Summary

Daily Weather History Graph

Daily Weather History Graph

Search for Another Location

Airport or City:

Trip Planner

Search our weather history database for the weather conditions in past years. The results will help you decide how hot, cold, wet, or windy it might be!

Date:

Astronomy

Aug. 20, 2012 Rise Set
Actual Time 6:42 AM EDT 8:03 PM EDT
Civil Twilight 6:15 AM EDT 8:29 PM EDT
Nautical Twilight 5:43 AM EDT 9:01 PM EDT
Astronomical Twilight 5:09 AM EDT 9:35 PM EDT
Moon 9:54 AM EDT (8/20) 9:34 PM EDT (8/20)
Length of Visible Light 14h 14m
Length of Day
13h 20m
Waxing Crescent, 11% of the Moon is Illuminated
Aug 20
Waxing Crescent
Aug 24
First Quarter
Aug 31
Full
Sep 8
Last Quarter
Sep 15
New

Hourly Weather History & Observations

Time (EDT) Temp. Dew Point Humidity Pressure Visibility Wind Dir Wind Speed Gust Speed Precip Events Conditions
12:54 AM 66.0 °F 64.0 °F 93% 29.90 in 6.0 mi Calm Calm - 0.00 in   Overcast
1:01 AM 66.2 °F 64.4 °F 94% 29.92 in 6.0 mi North 4.6 mph - N/A   Overcast
1:54 AM 66.0 °F 64.0 °F 93% 29.88 in 7.0 mi Calm Calm - 0.00 in   Overcast
2:08 AM 66.2 °F 64.4 °F 94% 29.91 in 7.0 mi Calm Calm - N/A   Overcast
2:54 AM 66.0 °F 64.0 °F 93% 29.88 in 7.0 mi Calm Calm - 0.00 in Rain Light Rain
3:54 AM 64.9 °F 64.0 °F 97% 29.87 in 5.0 mi North 3.5 mph - 0.02 in Rain Light Rain
4:54 AM 64.9 °F 64.0 °F 97% 29.86 in 5.0 mi North 3.5 mph - 0.00 in   Overcast
5:01 AM 64.4 °F 62.6 °F 94% 29.88 in 5.0 mi North 3.5 mph - N/A   Overcast
5:54 AM 64.9 °F 63.0 °F 93% 29.87 in 7.0 mi NNE 3.5 mph - 0.00 in   Overcast
6:07 AM 64.4 °F 62.6 °F 94% 29.90 in 6.0 mi North 3.5 mph - N/A   Overcast
6:24 AM 64.4 °F 64.4 °F 100% 29.91 in 5.0 mi Calm Calm - N/A   Overcast
6:54 AM 64.9 °F 64.0 °F 97% 29.90 in 6.0 mi Calm Calm - 0.00 in   Overcast
7:22 AM 64.4 °F 62.6 °F 94% 29.92 in 5.0 mi North 3.5 mph - 0.00 in   Overcast
7:35 AM 64.4 °F 62.6 °F 94% 29.92 in 5.0 mi Calm Calm - 0.00 in   Overcast
7:54 AM 64.9 °F 63.0 °F 93% 29.91 in 5.0 mi Calm Calm - 0.00 in   Overcast
8:02 AM 66.2 °F 62.6 °F 88% 29.93 in 5.0 mi Calm Calm - N/A   Overcast
8:54 AM 66.0 °F 63.0 °F 90% 29.92 in 6.0 mi Calm Calm - N/A   Overcast
9:54 AM 68.0 °F 64.9 °F 90% 29.93 in 7.0 mi Calm Calm - N/A   Overcast
10:54 AM 71.1 °F 64.9 °F 81% 29.93 in 10.0 mi NE 3.5 mph - N/A   Overcast
11:15 AM 71.6 °F 64.4 °F 78% 29.95 in 10.0 mi ENE 4.6 mph - N/A   Overcast
11:54 AM 72.0 °F 64.0 °F 76% 29.93 in 10.0 mi Calm Calm - N/A   Overcast
12:35 PM 75.2 °F 64.4 °F 69% 29.95 in 10.0 mi NNW 3.5 mph - N/A   Mostly Cloudy
12:54 PM 73.0 °F 63.0 °F 71% 29.92 in 10.0 mi Variable 3.5 mph - N/A   Mostly Cloudy
1:54 PM 75.9 °F 64.0 °F 67% 29.90 in 10.0 mi Calm Calm - N/A   Mostly Cloudy
2:54 PM 77.0 °F 63.0 °F 62% 29.88 in 10.0 mi South 4.6 mph - N/A   Scattered Clouds
3:54 PM 75.9 °F 64.0 °F 67% 29.88 in 10.0 mi South 6.9 mph - N/A   Scattered Clouds
4:54 PM 75.0 °F 64.9 °F 71% 29.88 in 10.0 mi SSE 8.1 mph - N/A   Partly Cloudy
5:54 PM 75.0 °F 64.9 °F 71% 29.89 in 10.0 mi South 8.1 mph - N/A   Partly Cloudy
6:54 PM 73.9 °F 66.0 °F 76% 29.90 in 10.0 mi South 4.6 mph - N/A   Partly Cloudy
7:54 PM 73.0 °F 66.0 °F 79% 29.91 in 10.0 mi SSE 4.6 mph - N/A   Scattered Clouds
8:54 PM 73.0 °F 66.0 °F 79% 29.92 in 10.0 mi Calm Calm - N/A   Partly Cloudy
9:54 PM 71.1 °F 66.0 °F 84% 29.96 in 9.0 mi NNW 9.2 mph - N/A   Mostly Cloudy
10:37 PM 69.8 °F 60.8 °F 73% 30.00 in 10.0 mi NW 10.4 mph - 0.00 in Rain , Thunderstorm Light Thunderstorms and Rain
10:54 PM 64.9 °F 62.1 °F 90% 30.00 in 5.0 mi West 15.0 mph - 0.02 in Rain , Thunderstorm Thunderstorms and Rain
11:09 PM 64.4 °F 62.6 °F 94% 30.02 in 4.0 mi West 8.1 mph - 0.17 in Rain Rain
11:54 PM 66.0 °F 62.1 °F 87% 29.99 in 7.0 mi Calm Calm - 0.20 in   Scattered Clouds